EW8073 Weather Reports


Display with metric or nautical units.
time (UTC)temp
F
wind
direction
speed
MPH
gust
MPH
rain 1hr
in
rain 24hr
in
rain mn
in
humidity
%
barometer
mb
20260505090045 47 80 0.0 4.0 0.00 0.00 0.00 86 1010.1
20260505085545 47 84 0.0 4.0 0.00 0.00 0.00 86 1010.1
20260505085045 48 89 0.0 4.0 0.00 0.00 0.00 86 1010.2
20260505084544 48 80 0.0 3.0 0.00 0.00 0.00 86 1010.2
20260505083544 48 269 0.0 1.0 0.00 0.00 0.00 86 1010.2
20260505083042 49 268 0.0 0.0 0.00 0.00 0.00 86 1010.2
20260505082543 49 268 0.0 0.0 0.00 0.00 0.00 86 1010.2
20260505082038 49 268 0.0 0.0 0.00 0.00 0.00 86 1010.2
20260505081539 49 268 0.0 0.0 0.00 0.00 0.00 86 1010.3
20260505081038 49 268 0.0 0.0 0.00 0.00 0.00 86 1010.4
20260505080538 49 268 0.0 1.0 0.00 0.00 0.00 86 1010.3
20260505075539 49 268 0.0 0.0 0.00 0.00 0.00 86 1010.4
20260505075038 49 268 0.0 1.0 0.00 0.00 0.00 86 1010.4
20260505074539 49 268 0.0 1.0 0.00 0.00 0.00 86 1010.4
20260505074039 49 267 0.0 0.0 0.00 0.00 0.00 86 1010.4
20260505073538 49 267 0.0 0.0 0.00 0.00 0.00 86 1010.4
20260505073038 49 267 0.0 0.0 0.00 0.00 0.00 86 1010.3
20260505072039 49 267 0.0 0.0 0.00 0.00 0.00 85 1010.4
20260505071538 49 267 0.0 0.0 0.00 0.00 0.00 85 1010.3
20260505071038 49 267 0.0 0.0 0.00 0.00 0.00 85 1010.3
20260505070038 49 267 0.0 0.0 0.00 0.00 0.00 86 1010.3
20260505065538 49 267 0.0 0.0 0.00 0.00 0.00 86 1010.3
20260505065039 49 267 0.0 0.0 0.00 0.00 0.00 86 1010.3
20260505064539 49 267 0.0 0.0 0.00 0.00 0.00 86 1010.4
20260505064041 49 267 0.0 0.0 0.00 0.00 0.00 86 1010.3
20260505063036 49 267 0.0 0.0 0.00 0.00 0.00 85 1010.4
20260505062535 49 267 0.0 0.0 0.00 0.00 0.00 85 1010.4
20260505062034 49 267 0.0 0.0 0.00 0.00 0.00 85 1010.4
20260505061534 49 267 0.0 0.0 0.00 0.00 0.00 85 1010.6
20260505061034 49 267 0.0 0.0 0.00 0.00 0.00 85 1010.8
20260505060534 49 267 0.0 0.0 0.00 0.00 0.00 85 1010.6
20260505060030 49 267 0.0 0.0 0.00 0.00 0.00 85 1010.6
20260505055532 49 267 0.0 0.0 0.00 0.00 0.00 85 1010.5
20260505055029 49 267 0.0 0.0 0.00 0.00 0.00 85 1010.5
20260505054531 49 267 0.0 0.0 0.00 0.00 0.00 85 1010.3
20260505054025 50 267 0.0 0.0 0.00 0.00 0.00 84 1010.2
20260505053519 50 267 0.0 0.0 0.00 0.00 0.00 84 1010.2
20260505052509 50 267 0.0 0.0 0.00 0.00 0.00 84 1010.2
20260505052003 50 267 0.0 0.0 0.00 0.00 0.00 84 1010.3
20260505051456 50 267 0.0 0.0 0.00 0.00 0.00 83 1010.5
20260505050950 51 269 0.0 0.0 0.00 0.00 0.00 83 1010.5
20260505050443 51 270 0.0 0.0 0.00 0.00 0.00 83 1010.3
20260505041347 51 275 0.0 0.0 0.00 0.00 0.00 78 1010.8
20260505040846 51 276 0.0 0.0 0.00 0.00 0.00 78 1010.6
20260505040346 52 277 0.0 0.0 0.00 0.00 0.00 77 1010.6
20260505035846 52 277 0.0 0.0 0.00 0.00 0.00 76 1010.5
20260505035344 52 279 0.0 0.0 0.00 0.00 0.00 75 1010.5
20260505034845 52 279 0.0 0.0 0.00 0.00 0.00 74 1010.5
20260505034342 53 280 0.0 1.0 0.00 0.00 0.00 73 1010.5
20260505033843 53 271 0.0 1.0 0.00 0.00 0.00 72 1010.6
20260505033343 53 0 0.0 0.0 0.00 0.00 0.00 71 1010.5
20260505032843 54 0 0.0 0.0 0.00 0.00 0.00 69 1010.4
20260505031839 54 0 0.0 0.0 0.00 0.00 0.00 66 1010.1
20260505030338 55 87 0.0 0.0 0.00 0.00 0.00 63 1009.7
20260505025839 55 92 0.0 0.0 0.00 0.00 0.00 63 1009.6
20260505025339 55 92 0.0 0.0 0.00 0.00 0.00 63 1009.4
20260505024339 55 71 0.0 0.0 0.00 0.00 0.00 61 1009.4
20260505023839 55 345 0.0 0.0 0.00 0.00 0.00 61 1009.4
20260505022839 56 344 0.0 4.0 0.00 0.00 0.00 60 1009.4
20260505021839 56 344 1.0 5.0 0.00 0.00 0.00 60 1009.1
20260505021338 56 344 1.0 5.0 0.00 0.00 0.00 59 1009.2
20260505020838 57 329 0.0 4.0 0.00 0.00 0.00 57 1009.1
20260505020339 57 346 0.0 1.0 0.00 0.00 0.00 55 1009.2
20260505015839 58 348 0.0 0.0 0.00 0.00 0.00 53 1009.1
20260505015338 58 0 0.0 0.0 0.00 0.00 0.00 52 1009.1
20260505014831 58 348 0.0 1.0 0.00 0.00 0.00 52 1008.9
20260505014325 58 0 0.0 1.0 0.00 0.00 0.00 52 1008.8
20260505013820 58 24 0.0 1.0 0.00 0.00 0.00 51 1008.7
20260505013314 58 0 0.0 0.0 0.00 0.00 0.00 52 1008.7
20260505012808 59 0 0.0 0.0 0.00 0.00 0.00 51 1008.8
20260505012301 59 0 0.0 0.0 0.00 0.00 0.00 51 1008.8
20260505011756 59 285 0.0 0.0 0.00 0.00 0.00 51 1008.7
20260505011250 59 0 0.0 0.0 0.00 0.00 0.00 52 1008.8
20260505010744 60 0 0.0 0.0 0.00 0.00 0.00 52 1008.5
20260505010238 60 0 0.0 0.0 0.00 0.00 0.00 51 1008.5
20260505005731 60 0 0.0 0.0 0.00 0.00 0.00 48 1008.5
20260505004720 60 0 0.0 0.0 0.00 0.00 0.00 47 1008.5
20260505004214 60 0 0.0 1.0 0.00 0.00 0.00 45 1008.4
20260505003709 61 0 0.0 1.0 0.00 0.00 0.00 45 1008.3
20260505003203 61 319 0.0 1.0 0.00 0.00 0.00 44 1008.2
20260505002657 62 11 0.0 1.0 0.00 0.00 0.00 42 1008.2
20260505002149 62 340 0.0 0.0 0.00 0.00 0.00 39 1008.1
20260505001644 62 340 0.0 0.0 0.00 0.00 0.00 39 1008.1
20260505001137 62 325 0.0 0.0 0.00 0.00 0.00 39 1008.0
20260505000631 62 321 0.0 0.0 0.00 0.00 0.00 39 1007.8
20260505000125 62 321 0.0 1.0 0.00 0.00 0.00 39 1007.8
20260504235620 63 318 0.0 1.0 0.00 0.00 0.00 39 1007.7
20260504234605 63 285 0.0 0.0 0.00 0.00 0.00 39 1007.6
20260504233047 63 355 0.0 4.0 0.00 0.00 0.00 38 1007.7
20260504232037 64 298 1.0 10.0 0.00 0.00 0.00 38 1007.7
20260504231530 65 294 1.0 8.0 0.00 0.00 0.00 37 1007.7
20260504231023 65 305 1.0 9.0 0.00 0.00 0.00 33 1007.5
20260504230518 65 68 1.0 9.0 0.00 0.00 0.00 32 1007.4
20260504230012 66 5 0.0 4.0 0.00 0.00 0.00 31 1007.4
20260504225507 66 33 0.0 1.0 0.00 0.00 0.00 30 1007.5
20260504225001 66 345 0.0 1.0 0.00 0.00 0.00 30 1007.3
20260504224455 66 332 0.0 2.0 0.00 0.00 0.00 30 1007.1
20260504223947 67 346 0.0 2.0 0.00 0.00 0.00 30 1007.1
20260504223442 67 296 0.0 1.0 0.00 0.00 0.00 30 1007.0
20260504222936 67 55 0.0 1.0 0.00 0.00 0.00 29 1007.0
20260504222430 68 344 0.0 2.0 0.00 0.00 0.00 29 1007.0
20260504221924 68 75 1.0 8.0 0.00 0.00 0.00 28 1006.7
20260504221418 69 60 1.0 8.0 0.00 0.00 0.00 28 1006.6
20260504220911 69 259 0.0 4.0 0.00 0.00 0.00 28 1006.4
20260504220405 70 60 1.0 10.0 0.00 0.00 0.00 27 1006.3
20260504215859 70 327 2.0 10.0 0.00 0.00 0.00 28 1006.1
20260504214849 68 14 3.0 11.0 0.00 0.00 0.00 29 1006.1
20260504214346 68 42 2.0 11.0 0.00 0.00 0.00 30 1006.2
20260504212846 67 328 1.0 17.0 0.00 0.00 0.00 28 1006.4
20260504212344 68 321 0.0 6.0 0.00 0.00 0.00 27 1006.6
20260504211843 68 130 0.0 5.0 0.00 0.00 0.00 25 1006.7
20260504211340 68 340 0.0 2.0 0.00 0.00 0.00 25 1006.6
20260504210838 69 73 0.0 2.0 0.00 0.00 0.00 24 1006.7
20260504210338 68 127 0.0 2.0 0.00 0.00 0.00 25 1006.8
20260504205840 68 126 0.0 2.0 0.00 0.00 0.00 24 1006.8
20260504205335 68 215 1.0 6.0 0.00 0.00 0.00 24 1006.9
20260504204834 68 215 1.0 10.0 0.00 0.00 0.00 25 1007.0
20260504204331 68 327 0.0 10.0 0.00 0.00 0.00 24 1007.3
20260504203331 69 294 1.0 13.0 0.00 0.00 0.00 24 1006.9
20260504202833 69 251 1.0 13.0 0.00 0.00 0.00 24 1006.7
20260504202331 69 258 2.0 14.0 0.00 0.00 0.00 23 1006.4
20260504201330 70 252 1.0 10.0 0.00 0.00 0.00 23 1006.6
20260504200830 70 189 0.0 4.0 0.00 0.00 0.00 21 1006.4
20260504195817 71 227 3.0 18.0 0.00 0.00 0.00 20 1006.3
20260504195310 73 254 1.0 18.0 0.00 0.00 0.00 20 1006.3
20260504194805 74 246 0.0 4.0 0.00 0.00 0.00 19 1006.4
20260504194258 75 227 0.0 1.0 0.00 0.00 0.00 17 1006.6
20260504193752 75 325 0.0 0.0 0.00 0.00 0.00 16 1006.4
20260504193246 75 325 0.0 0.0 0.00 0.00 0.00 17 1006.3
20260504192233 75 259 0.0 3.0 0.00 0.00 0.00 17 1006.3
20260504191728 75 285 0.0 3.0 0.00 0.00 0.00 16 1006.3
20260504191222 75 306 0.0 1.0 0.00 0.00 0.00 16 1006.3
20260504190716 76 263 0.0 1.0 0.00 0.00 0.00 17 1006.2
20260504190211 75 244 0.0 1.0 0.00 0.00 0.00 17 1006.3
20260504185712 75 271 0.0 1.0 0.00 0.00 0.00 17 1006.3
20260504184710 73 245 0.0 2.0 0.00 0.00 0.00 18 1006.3
20260504184209 73 344 0.0 6.0 0.00 0.00 0.00 18 1006.3
20260504183710 73 355 1.0 8.0 0.00 0.00 0.00 19 1006.4
20260504183207 73 19 2.0 8.0 0.00 0.00 0.00 19 1006.4
20260504182708 73 319 2.0 9.0 0.00 0.00 0.00 19 1006.6
20260504181209 74 9 1.0 8.0 0.00 0.00 0.00 20 1006.6
20260504180708 74 292 2.0 9.0 0.00 0.00 0.00 21 1006.8
20260504180208 74 277 2.0 9.0 0.00 0.00 0.00 20 1006.8
20260504175704 74 0 2.0 9.0 0.00 0.00 0.00 21 1006.8
20260504175204 74 221 1.0 9.0 0.00 0.00 0.00 21 1006.9
20260504174204 73 283 3.0 9.0 0.00 0.00 0.00 22 1007.1
20260504173703 73 355 2.0 9.0 0.00 0.00 0.00 22 1007.3
20260504173203 73 5 0.0 4.0 0.00 0.00 0.00 22 1007.3
20260504172704 73 324 0.0 3.0 0.00 0.00 0.00 22 1007.3
20260504171705 73 127 1.0 7.0 0.00 0.00 0.00 22 1007.4
20260504171204 73 336 2.0 7.0 0.00 0.00 0.00 23 1007.4
20260504170703 72 348 1.0 7.0 0.00 0.00 0.00 23 1007.5
20260504170204 72 355 1.0 7.0 0.00 0.00 0.00 24 1007.5
20260504160122 67 322 0.0 4.0 0.00 0.00 0.00 28 1008.1
20260504151022 61 254 0.0 1.0 0.00 0.00 0.00 31 1008.3
20260504150517 60 262 0.0 1.0 0.00 0.00 0.00 32 1008.3
20260504140911 54 223 0.0 0.0 0.00 0.00 0.00 40 1008.4
20260504140405 54 216 0.0 0.0 0.00 0.00 0.00 43 1008.4
20260504130800 47 343 0.0 0.0 0.00 0.00 0.00 53 1008.5
20260504120140 44 343 0.0 0.0 0.00 0.00 0.00 56 1008.0
20260504110540 43 343 0.0 0.0 0.00 0.00 0.00 55 1008.3
20260504100528 45 343 0.0 0.0 0.00 0.00 0.00 49 1008.7